Terug naar catalogus

COSMOS 1579 COOLANT

LostLEO
NORAD 26515·DEBRIS·🇷🇺 Russia

Gelanceerd Jun 29, 1984 vanaf Baikonur Cosmodrome

Loading…

Volgende Passages (komende 24 uur)

TLE

VerouderdSource: Space-Track

Epoch: Jun 11, 2010, 07:37 UTC

1 26515U 84069G   10162.31738229 -.00000013 +00000-0 +61887-4 0  9990
2 26515 065.0424 059.4290 0066304 234.4634 125.5754 13.89360904520623

Volg COSMOS 1579 COOLANT in realtime met AllMySat

Download on the App Store